Regional Weather Roundup
Issued by NWS

Home | Current Version | Previous Version | Graphics & Text | Print | Product List | Glossary On
Versions: 1 2 3 4 5 6 7 8 9 10 11 12 13 14 15 16 17 18 19 20 21 22 23 24 25 26 27 28 29 30 31 32 33 34 35 36 37 38 39 40 41 42 43 44 45 46 47 48 49 50
000
ASUS43 KFSD 012010
RWRSD

WEATHER ROUNDUP FOR SOUTH DAKOTA
NATIONAL WEATHER SERVICE SIOUX FALLS SD
300 PM CDT SUN MAY 01 2016

NOTE: "FAIR" INDICATES FEW OR NO CLOUDS BELOW 12,000 FEET WITH NO
SIGNIFICANT WEATHER AND/OR OBSTRUCTIONS TO VISIBILITY.


SDZ001>005-009-010-012>017-012100-
NORTHWEST AND NORTH CENTRAL SOUTH DAKOTA

CITY           SKY/WX    TMP DP  RH WIND       PRES   REMARKS
BUFFALO          N/A     59  28  30 NE6       30.21F
FAITH            N/A     58  27  30 N7        30.26F
MOBRIDGE       SUNNY     63  32  31 N10       30.22F
$$

SDZ012>016-024>037-041>051-057-063-072>074-012100-
SOUTHWEST AND SOUTH CENTRAL SOUTH DAKOTA

CITY           SKY/WX    TMP DP  RH WIND       PRES   REMARKS
RAPID CTY ARPT SUNNY     56  31  38 NW10G17   30.27F
PIERRE         MOSUNNY   59  33  37 MISG      30.24F
CUSTER         MOSUNNY   49  23  36 VRB5      30.27S
ELLSWORTH AFB  SUNNY     56  30  37 N10G17    30.27F
PHILIP         SUNNY     60  32  34 N9        30.25F
PINE RIDGE     MOSUNNY   55  31  39 N9        30.26F
WINNER         FAIR      58  34  40 N20G26    30.23F
$$

SDZ004>011-016>023-039-040-012100-
NORTHEAST SOUTH DAKOTA

CITY           SKY/WX    TMP DP  RH WIND       PRES   REMARKS
ABERDEEN       SUNNY     61  32  33 NE9       30.22F
WATERTOWN      SUNNY     59  32  36 NE14G24   30.18F
BROOKINGS      SUNNY     56  33  42 NE12G17   30.17S
SISSETON         N/A     61  30  31 NE12      30.19F
$$

SDZ017-020-022-023-036>040-048>070-012100-
SOUTHEAST SOUTH DAKOTA

CITY           SKY/WX    TMP DP  RH WIND       PRES   REMARKS
SIOUX FALLS    PTSUNNY   54  38  54 NE9       30.17R
HURON          SUNNY     59  32  36 NE15G23   30.21S
CHAMBERLAIN    SUNNY     58  35  42 NE14      30.23S
MITCHELL       MOSUNNY   57  38  48 N10       30.21S
YANKTON        CLOUDY    54  43  66 N12       30.17S
$$

ABBREVIATIONS USED IN REMARKS
   TC - TEMPERATURE IN CELSIUS
  WCI - WIND CHILL INDEX
   HX - HEAT INDEX
  VSB - VISIBILITY





USA.gov is the U.S. government's official web portal to all federal, state and local government web resources and services.